1 Minute Report
Date Time Wind Direction Wind Speed Wind Gust Wind Variable Altimeter Temperature Dewpoint Relative Humidity Visibility Ceiling Precip Present Weather Density Alt Wind Chill Heat Index
17/08/17 05:43 000 00 N/A N/A 30.07 58(F), 14(C) 55(F), 13(C) 94% 10 CLR N/A N/A N/A 58 F N/A 18542
17/08/17 05:42 000 00 N/A N/A 30.07 58(F), 14(C) 55(F), 13(C) 94% 10 CLR N/A N/A N/A 58 F N/A 18541
17/08/17 05:41 000 00 N/A N/A 30.07 58(F), 14(C) 55(F), 13(C) 94% 10 CLR N/A N/A N/A 58 F N/A 18540
17/08/17 05:40 000 00 N/A N/A 30.07 58(F), 14(C) 56(F), 13(C) 94% 10 CLR N/A N/A N/A 58 F N/A 18539
17/08/17 05:39 000 00 N/A N/A 30.07 58(F), 14(C) 56(F), 13(C) 94% 10 CLR N/A N/A N/A 58 F N/A 18538
17/08/17 05:38 000 00 N/A N/A 30.07 58(F), 14(C) 56(F), 13(C) 94% 10 CLR N/A N/A N/A 58 F N/A 18537
17/08/17 05:37 000 00 N/A N/A 30.07 58(F), 14(C) 56(F), 13(C) 94% 10 CLR N/A N/A N/A 58 F N/A 18536
17/08/17 05:36 000 00 N/A N/A 30.07 58(F), 14(C) 56(F), 13(C) 94% 10 CLR N/A N/A N/A 58 F N/A 18535
17/08/17 05:35 000 00 N/A N/A 30.07 58(F), 14(C) 56(F), 13(C) 94% 10 CLR N/A N/A N/A 58 F N/A 18534
17/08/17 05:34 000 00 N/A N/A 30.07 58(F), 14(C) 56(F), 13(C) 94% 10 CLR N/A N/A N/A 58 F N/A 18533
17/08/17 05:33 000 00 N/A N/A 30.07 58(F), 14(C) 55(F), 13(C) 94% 10 CLR N/A N/A N/A 58 F N/A 18532
17/08/17 05:32 000 00 N/A N/A 30.07 58(F), 14(C) 56(F), 13(C) 94% 10 CLR N/A N/A N/A 58 F N/A 18531
17/08/17 05:31 000 00 N/A N/A 30.07 58(F), 14(C) 56(F), 13(C) 94% 10 CLR N/A N/A N/A 58 F N/A 18530
17/08/17 05:30 000 00 N/A N/A 30.07 58(F), 14(C) 56(F), 13(C) 94% 10 CLR N/A N/A N/A 58 F N/A 18529
17/08/17 05:29 000 00 N/A N/A 30.07 58(F), 14(C) 56(F), 13(C) 94% 10 CLR N/A N/A N/A 58 F N/A 18528
17/08/17 05:28 000 00 N/A N/A 30.07 58(F), 14(C) 56(F), 13(C) 94% 10 CLR N/A N/A N/A 58 F N/A 18527
17/08/17 05:27 000 00 N/A N/A 30.07 58(F), 14(C) 56(F), 13(C) 94% 10 CLR N/A N/A N/A 58 F N/A 18526
17/08/17 05:26 000 00 N/A N/A 30.07 58(F), 14(C) 56(F), 13(C) 94% 10 CLR N/A N/A N/A 58 F N/A 18525
17/08/17 05:25 000 00 N/A N/A 30.07 58(F), 14(C) 56(F), 13(C) 94% 10 CLR N/A N/A N/A 58 F N/A 18524
17/08/17 05:24 000 00 N/A N/A 30.07 58(F), 14(C) 56(F), 13(C) 94% 10 CLR N/A N/A N/A 58 F N/A 18523
17/08/17 05:23 000 00 N/A N/A 30.07 58(F), 14(C) 56(F), 13(C) 94% 10 CLR N/A N/A N/A 58 F N/A 18522
17/08/17 05:22 000 00 N/A N/A 30.07 58(F), 14(C) 56(F), 13(C) 94% 10 CLR N/A N/A N/A 58 F N/A 18521
17/08/17 05:21 000 00 N/A N/A 30.07 58(F), 14(C) 56(F), 13(C) 94% 10 CLR N/A N/A N/A 58 F N/A 18520
17/08/17 05:20 000 00 N/A N/A 30.07 58(F), 14(C) 56(F), 13(C) 94% 10 CLR N/A N/A N/A 58 F N/A 18519
17/08/17 05:19 000 00 N/A N/A 30.07 58(F), 14(C) 56(F), 13(C) 94% 10 CLR N/A N/A N/A 58 F N/A 18518
17/08/17 05:18 000 00 N/A N/A 30.07 58(F), 14(C) 55(F), 13(C) 94% 10 CLR N/A N/A N/A 58 F N/A 18517
17/08/17 05:17 000 00 N/A N/A 30.07 58(F), 14(C) 55(F), 13(C) 94% 10 CLR N/A N/A N/A 58 F N/A 18516
17/08/17 05:16 000 00 N/A N/A 30.07 58(F), 14(C) 55(F), 13(C) 94% 10 CLR N/A N/A N/A 58 F N/A 18515
17/08/17 05:15 000 00 N/A N/A 30.07 58(F), 14(C) 55(F), 13(C) 94% 10 CLR N/A N/A N/A 58 F N/A 18514
17/08/17 05:14 000 00 N/A N/A 30.07 58(F), 14(C) 55(F), 13(C) 94% 10 CLR N/A N/A N/A 58 F N/A 18513
17/08/17 05:13 000 00 N/A N/A 30.07 58(F), 14(C) 56(F), 13(C) 94% 10 CLR N/A N/A N/A 58 F N/A 18512
17/08/17 05:12 000 00 N/A N/A 30.07 58(F), 14(C) 56(F), 13(C) 94% 10 CLR N/A N/A N/A 58 F N/A 18511
17/08/17 05:11 000 00 N/A N/A 30.07 58(F), 14(C) 56(F), 13(C) 94% 10 CLR N/A N/A N/A 58 F N/A 18510
17/08/17 05:10 000 00 N/A N/A 30.07 58(F), 14(C) 56(F), 13(C) 94% 7 CLR N/A N/A N/A 58 F N/A 18509
17/08/17 05:09 000 00 N/A N/A 30.07 58(F), 14(C) 56(F), 13(C) 94% 7 CLR N/A N/A N/A 58 F N/A 18508
17/08/17 05:08 000 00 N/A N/A 30.07 58(F), 14(C) 56(F), 13(C) 94% 7 CLR N/A N/A N/A 58 F N/A 18507
17/08/17 05:07 000 00 N/A N/A 30.07 59(F), 15(C) 56(F), 13(C) 88% 7 CLR N/A N/A N/A 59 F N/A 18506
17/08/17 05:06 000 00 N/A N/A 30.07 59(F), 15(C) 56(F), 13(C) 88% 7 CLR N/A N/A N/A 59 F N/A 18505
17/08/17 05:05 000 00 N/A N/A 30.07 59(F), 15(C) 56(F), 13(C) 88% 7 CLR N/A N/A N/A 59 F N/A 18504
17/08/17 05:04 000 00 N/A N/A 30.07 59(F), 15(C) 56(F), 13(C) 88% 7 CLR N/A N/A N/A 59 F N/A 18503
17/08/17 05:03 000 00 N/A N/A 30.07 59(F), 15(C) 56(F), 13(C) 88% 7 CLR N/A N/A N/A 59 F N/A 18502
17/08/17 05:02 000 00 N/A N/A 30.07 59(F), 15(C) 56(F), 13(C) 88% 7 CLR N/A N/A N/A 59 F N/A 18501
17/08/17 05:01 000 00 N/A N/A 30.07 59(F), 15(C) 56(F), 13(C) 88% 10 CLR N/A N/A N/A 59 F N/A 18500
17/08/17 05:00 000 00 N/A N/A 30.07 59(F), 15(C) 56(F), 13(C) 88% 10 CLR N/A N/A N/A 59 F N/A 18499
17/08/17 04:59 000 00 N/A N/A 30.07 59(F), 15(C) 56(F), 13(C) 88% 10 CLR N/A N/A N/A 59 F N/A 18498
17/08/17 04:58 000 00 N/A N/A 30.07 59(F), 15(C) 56(F), 13(C) 88% 10 CLR N/A N/A N/A 59 F N/A 18497
17/08/17 04:57 000 00 N/A N/A 30.07 59(F), 15(C) 56(F), 13(C) 88% 10 CLR N/A N/A N/A 59 F N/A 18496
17/08/17 04:56 000 00 N/A N/A 30.07 59(F), 15(C) 56(F), 13(C) 88% 10 CLR N/A N/A N/A 59 F N/A 18495
17/08/17 04:55 000 00 N/A N/A 30.07 59(F), 15(C) 56(F), 13(C) 88% 10 CLR N/A N/A N/A 59 F N/A 18494
17/08/17 04:54 000 00 N/A N/A 30.07 59(F), 15(C) 56(F), 13(C) 88% 10 CLR N/A N/A N/A 59 F N/A 18493
17/08/17 04:53 000 00 N/A N/A 30.07 60(F), 16(C) 56(F), 13(C) 82% 10 CLR N/A N/A N/A 60 F N/A 18492
17/08/17 04:52 000 00 N/A N/A 30.07 60(F), 16(C) 56(F), 13(C) 82% 10 CLR N/A N/A N/A 60 F N/A 18491
17/08/17 04:51 000 00 N/A N/A 30.07 60(F), 16(C) 56(F), 13(C) 82% 10 CLR N/A N/A N/A 60 F N/A 18490
17/08/17 04:50 000 00 N/A N/A 30.07 60(F), 16(C) 56(F), 13(C) 82% 10 CLR N/A N/A N/A 60 F N/A 18489
17/08/17 04:49 000 00 N/A N/A 30.07 60(F), 16(C) 56(F), 13(C) 82% 10 CLR N/A N/A N/A 60 F N/A 18488
17/08/17 04:48 000 00 N/A N/A 30.07 59(F), 15(C) 56(F), 13(C) 88% 10 CLR N/A N/A N/A 59 F N/A 18487
17/08/17 04:47 000 00 N/A N/A 30.07 59(F), 15(C) 56(F), 13(C) 88% 10 CLR N/A N/A N/A 59 F N/A 18486
17/08/17 04:46 000 00 N/A N/A 30.07 59(F), 15(C) 57(F), 14(C) 94% 10 CLR N/A N/A N/A 59 F N/A 18485
17/08/17 04:45 000 00 N/A N/A 30.07 59(F), 15(C) 56(F), 13(C) 88% 10 CLR N/A N/A N/A 59 F N/A 18484
17/08/17 04:44 000 00 N/A N/A 30.07 59(F), 15(C) 56(F), 13(C) 88% 10 CLR N/A N/A N/A 59 F N/A 18483
17/08/17 04:43 000 00 N/A N/A 30.07 59(F), 15(C) 56(F), 13(C) 88% 10 CLR N/A N/A N/A 59 F N/A 18482
17/08/17 04:42 000 00 N/A N/A 30.07 59(F), 15(C) 56(F), 13(C) 88% 10 CLR N/A N/A N/A 59 F N/A 18481
17/08/17 04:41 000 00 N/A N/A 30.07 60(F), 16(C) 56(F), 13(C) 82% 10 CLR N/A N/A N/A 60 F N/A 18480
17/08/17 04:40 000 00 N/A N/A 30.07 60(F), 16(C) 57(F), 14(C) 88% 10 CLR N/A N/A N/A 60 F N/A 18479
17/08/17 04:39 000 00 N/A N/A 30.07 60(F), 16(C) 57(F), 14(C) 88% 10 CLR N/A N/A N/A 60 F N/A 18478
17/08/17 04:38 000 00 N/A N/A 30.06 60(F), 16(C) 57(F), 14(C) 88% 10 CLR N/A N/A N/A 60 F N/A 18477
17/08/17 04:37 000 00 N/A N/A 30.06 60(F), 16(C) 57(F), 14(C) 88% 10 CLR N/A N/A N/A 60 F N/A 18476
17/08/17 04:36 000 00 N/A N/A 30.06 60(F), 16(C) 57(F), 14(C) 88% 10 CLR N/A N/A N/A 60 F N/A 18475
17/08/17 04:35 000 00 N/A N/A 30.06 60(F), 16(C) 57(F), 14(C) 88% 10 CLR N/A N/A N/A 60 F N/A 18474
17/08/17 04:34 000 00 N/A N/A 30.06 60(F), 16(C) 57(F), 14(C) 88% 10 CLR N/A N/A N/A 60 F N/A 18473
17/08/17 04:33 000 00 N/A N/A 30.06 60(F), 16(C) 57(F), 14(C) 88% 10 CLR N/A N/A N/A 60 F N/A 18472
17/08/17 04:32 000 00 N/A N/A 30.06 60(F), 16(C) 57(F), 14(C) 88% 10 CLR N/A N/A N/A 60 F N/A 18471
17/08/17 04:31 000 00 N/A N/A 30.06 60(F), 16(C) 57(F), 14(C) 88% 10 CLR N/A N/A N/A 60 F N/A 18470
17/08/17 04:30 000 00 N/A N/A 30.07 60(F), 16(C) 57(F), 14(C) 88% 10 CLR N/A N/A N/A 60 F N/A 18469
17/08/17 04:29 000 00 N/A N/A 30.07 60(F), 16(C) 57(F), 14(C) 88% 10 CLR N/A N/A N/A 60 F N/A 18468
17/08/17 04:28 000 00 N/A N/A 30.07 60(F), 16(C) 57(F), 14(C) 88% 10 CLR N/A N/A N/A 60 F N/A 18467
17/08/17 04:27 000 00 N/A N/A 30.07 60(F), 16(C) 57(F), 14(C) 88% 10 CLR N/A N/A N/A 60 F N/A 18466
17/08/17 04:26 000 00 N/A N/A 30.07 60(F), 16(C) 57(F), 14(C) 88% 10 CLR N/A N/A N/A 60 F N/A 18465
17/08/17 04:25 000 00 N/A N/A 30.07 60(F), 16(C) 57(F), 14(C) 88% 10 CLR N/A N/A N/A 60 F N/A 18464
17/08/17 04:24 000 00 N/A N/A 30.07 60(F), 16(C) 57(F), 14(C) 88% 10 CLR N/A N/A N/A 60 F N/A 18463
17/08/17 04:23 000 00 N/A N/A 30.07 60(F), 16(C) 57(F), 14(C) 88% 10 CLR N/A N/A N/A 60 F N/A 18462
17/08/17 04:22 000 00 N/A N/A 30.07 60(F), 16(C) 57(F), 14(C) 88% 10 CLR N/A N/A N/A 60 F N/A 18461
17/08/17 04:21 000 00 N/A N/A 30.06 60(F), 16(C) 57(F), 14(C) 88% 10 CLR N/A N/A N/A 60 F N/A 18460
17/08/17 04:20 000 00 N/A N/A 30.06 60(F), 16(C) 58(F), 14(C) 88% 10 CLR N/A N/A N/A 60 F N/A 18459
17/08/17 04:19 000 00 N/A N/A 30.06 60(F), 16(C) 58(F), 14(C) 88% 10 CLR N/A N/A N/A 60 F N/A 18458
17/08/17 04:18 000 00 N/A N/A 30.06 60(F), 16(C) 58(F), 14(C) 88% 10 CLR N/A N/A N/A 60 F N/A 18457
17/08/17 04:17 000 00 N/A N/A 30.06 60(F), 16(C) 58(F), 14(C) 88% 10 CLR N/A N/A N/A 60 F N/A 18456
17/08/17 04:16 000 00 N/A N/A 30.06 60(F), 16(C) 58(F), 14(C) 88% 10 CLR N/A N/A N/A 60 F N/A 18455
17/08/17 04:15 200 03 N/A N/A 30.06 60(F), 16(C) 57(F), 14(C) 88% 10 CLR N/A N/A N/A 60 F N/A 18454
17/08/17 04:14 200 03 N/A N/A 30.06 60(F), 16(C) 57(F), 14(C) 88% 10 CLR N/A N/A N/A 60 F N/A 18453
17/08/17 04:13 000 00 N/A N/A 30.06 60(F), 16(C) 57(F), 14(C) 88% 10 CLR N/A N/A N/A 60 F N/A 18452
17/08/17 04:12 000 00 N/A N/A 30.06 60(F), 16(C) 57(F), 14(C) 88% 10 CLR N/A N/A N/A 60 F N/A 18451
17/08/17 04:11 000 00 N/A N/A 30.06 60(F), 16(C) 57(F), 14(C) 88% 10 CLR N/A N/A N/A 60 F N/A 18450
17/08/17 04:10 000 00 N/A N/A 30.06 60(F), 16(C) 57(F), 14(C) 88% 10 CLR N/A N/A N/A 60 F N/A 18449
17/08/17 04:09 000 00 N/A N/A 30.06 60(F), 16(C) 57(F), 14(C) 88% 10 CLR N/A N/A N/A 60 F N/A 18448
17/08/17 04:08 000 00 N/A N/A 30.06 60(F), 16(C) 57(F), 14(C) 88% 10 CLR N/A N/A N/A 60 F N/A 18447
17/08/17 04:07 000 00 N/A N/A 30.06 60(F), 16(C) 57(F), 14(C) 88% 10 CLR N/A N/A N/A 60 F N/A 18446
17/08/17 04:06 180 03 N/A N/A 30.06 60(F), 16(C) 57(F), 14(C) 88% 10 CLR N/A N/A N/A 60 F N/A 18445
17/08/17 04:05 190 03 N/A N/A 30.06 60(F), 16(C) 57(F), 14(C) 88% 10 CLR N/A N/A N/A 60 F N/A 18444
17/08/17 04:04 190 03 N/A N/A 30.06 61(F), 16(C) 57(F), 14(C) 88% 10 CLR N/A N/A N/A 61 F N/A 18443
17/08/17 04:03 180 03 N/A N/A 30.06 61(F), 16(C) 58(F), 14(C) 88% 10 CLR N/A N/A N/A 61 F N/A 18442
17/08/17 04:02 180 03 N/A N/A 30.06 61(F), 16(C) 58(F), 14(C) 88% 10 CLR N/A N/A N/A 61 F N/A 18441
17/08/17 04:01 000 00 N/A N/A 30.06 61(F), 16(C) 58(F), 14(C) 88% 10 CLR N/A N/A N/A 61 F N/A 18440
17/08/17 04:00 000 00 N/A N/A 30.06 61(F), 16(C) 58(F), 14(C) 88% 10 CLR N/A N/A N/A 61 F N/A 18439
17/08/17 03:59 000 00 N/A N/A 30.06 61(F), 16(C) 58(F), 14(C) 88% 10 CLR N/A N/A N/A 61 F N/A 18438
17/08/17 03:58 000 00 N/A N/A 30.06 61(F), 16(C) 58(F), 14(C) 88% 10 CLR N/A N/A N/A 61 F N/A 18437
17/08/17 03:57 000 00 N/A N/A 30.06 61(F), 16(C) 58(F), 14(C) 88% 10 CLR N/A N/A N/A 61 F N/A 18436
17/08/17 03:56 000 00 N/A N/A 30.06 61(F), 16(C) 58(F), 14(C) 88% 10 CLR N/A N/A N/A 61 F N/A 18435
17/08/17 03:55 000 00 N/A N/A 30.06 60(F), 16(C) 58(F), 14(C) 88% 10 CLR N/A N/A N/A 60 F N/A 18434
17/08/17 03:54 000 00 N/A N/A 30.06 60(F), 16(C) 58(F), 14(C) 88% 10 CLR N/A N/A N/A 60 F N/A 18433
17/08/17 03:53 000 00 N/A N/A 30.06 60(F), 16(C) 58(F), 14(C) 88% 10 CLR N/A N/A N/A 60 F N/A 18432
17/08/17 03:52 000 00 N/A N/A 30.06 60(F), 16(C) 57(F), 14(C) 88% 10 CLR N/A N/A N/A 60 F N/A 18431
17/08/17 03:51 000 00 N/A N/A 30.06 60(F), 16(C) 57(F), 14(C) 88% 10 CLR N/A N/A N/A 60 F N/A 18430
17/08/17 03:50 000 00 N/A N/A 30.06 60(F), 16(C) 57(F), 14(C) 88% 10 CLR N/A N/A N/A 60 F N/A 18429
17/08/17 03:49 000 00 N/A N/A 30.06 60(F), 16(C) 57(F), 14(C) 88% 10 CLR N/A N/A N/A 60 F N/A 18428
17/08/17 03:48 000 00 N/A N/A 30.06 60(F), 16(C) 57(F), 14(C) 88% 10 CLR N/A N/A N/A 60 F N/A 18427
17/08/17 03:47 000 00 N/A N/A 30.06 60(F), 16(C) 57(F), 14(C) 88% 10 CLR N/A N/A N/A 60 F N/A 18426
17/08/17 03:46 000 00 N/A N/A 30.06 60(F), 16(C) 57(F), 14(C) 88% 10 CLR N/A N/A N/A 60 F N/A 18425
17/08/17 03:45 000 00 N/A N/A 30.06 60(F), 16(C) 57(F), 14(C) 88% 10 CLR N/A N/A N/A 60 F N/A 18424
17/08/17 03:44 000 00 N/A N/A 30.06 60(F), 16(C) 57(F), 14(C) 88% 10 CLR N/A N/A N/A 60 F N/A 18423
17/08/17 03:43 000 00 N/A N/A 30.06 60(F), 16(C) 57(F), 14(C) 88% 10 CLR N/A N/A N/A 60 F N/A 18422